Regional Weather Roundup
Issued by NWS Green Bay, WI

Home | Current Version | Previous Version | Text Only | Print | Product List | Glossary On
Versions: 1 2 3 4 5 6 7 8 9 10 11 12 13 14 15 16 17 18 19 20 21 22 23 24 25 26 27 28 29 30 31 32 33 34 35 36 37 38 39 40 41 42 43 44 45 46 47 48 49 50
000
ASUS43 KGRB 242311
RWRGRB

NORTH-CENTRAL AND NORTHEAST WISCONSIN REGIONAL WEATHER ROUNDUP
NATIONAL WEATHER SERVICE GREEN BAY WI
600 PM CDT THU MAY 24 2018

WIZ005-009-010>012-018-019-250000-
NORTH CENTRAL WISCONSIN

CITY           SKY/WX    TMP DP  RH WIND       PRES   REMARKS
IRONWOOD       FAIR      79  66  64 S3        29.93F
MANITOWISH WTR TSTM      70  70 100 W10G18    29.98R
ARBOR VITAE    FAIR      80  64  57 S9        29.96F
EAGLE RIVER    FAIR      82  58  45 SW10G16   29.97F
LAND O LAKES   FAIR      81  61  50 S7        29.99F
RHINELANDER    FAIR      85  63  47 S14G21    29.98F
PHILLIPS       PTSUNNY   84  62  48 S17G24    29.93F
ANTIGO         FAIR      81  61  49 S13       29.99F
TOMAHAWK       FAIR      81  63  54 S6        29.97F
MERRILL        NOT AVBL
$$

WIZ013-073-250000-
NORTHEAST WISCONSIN

CITY           SKY/WX    TMP DP  RH WIND       PRES   REMARKS
IRON MOUNTAIN  FAIR      81  64  56 SE7       29.96F
MARINETTE      FAIR      76  58  53 S12       29.99F
OCONTO         FAIR      78  59  52 S9        29.99S
$$

WIZ017-030-035>037-045-250000-
CENTRAL WISCONSIN

CITY           SKY/WX    TMP DP  RH WIND       PRES   REMARKS
MEDFORD        FAIR      84  62  47 S18       29.97F
WAUSAU         FAIR      84  60  44 S15G23    29.96F
MOSINEE        PTSUNNY   82  59  44 SW14G20   30.00F
MARSHFIELD     FAIR      83  61  47 S12       29.98S
WISC RAPIDS    FAIR      84  61  45 SW9       29.99F
STEVENS POINT  FAIR      84  59  42 S10G21    29.99F
WAUPACA        FAIR      87  58  37 S10       29.99F
SHAWANO        FAIR      85  60  41 S7        29.98F
CLINTONVILLE   FAIR      85  57  38 S14       29.98F
WAUTOMA        FAIR      85  61  44 S13G18    29.99F
$$

WIZ038-039-048-051-250000-
FOX VALLEY

CITY           SKY/WX    TMP DP  RH WIND       PRES   REMARKS
NWS GREEN BAY  FAIR      83  61  47 S15       29.99F
APPLETON       MOSUNNY   82  54  36 S13       29.99F
OSHKOSH        FAIR      83  62  49 S14       30.00F
FOND DU LAC    FAIR      84  59  42 S12       30.01F
$$

WIZ022-050-052-250000-
EAST CENTRAL WISCONSIN

CITY           SKY/WX    TMP DP  RH WIND       PRES   REMARKS
EPHRAIM        FAIR      70  50  48 S14G20    30.00F
WASHINGTON ISL NOT AVBL
STURGEON BAY   FAIR      72  52  49 S15       30.01F
MANITOWOC      FAIR      72  54  53 S15       30.03F
SHEBOYGAN      FAIR      76  54  46 S14       30.04F
$$

LMZ563-521-522-541>543-250000-
LAKESHORE

STATION/POSITION TIME  TEMP    WIND        PRES    VSBY  WAVE
                       AIR SEA DIR/SP/G                  HT/PER
                 (UTC) (F)     (DEG/KT/KT) (MB)    (MI)  (FT/S)
SHEBOYGAN LKSHOR 2300   60     180/ 19/ 20 1017.0F
KEWAUNEE LKSHORE 2242   53     170/ 13/ 15 1016.6F
NORTHPORT PIER   2240   62     160/  5/  8 1015.9F
N MID LAKE BUOY  2250   42 38  200/  8/ 12 1016.4F         1
SISTER BAY LKSHO 2257   74     180/ 17/ 21   N/A
MENOMINEE LKSHOR 2236   65     150/ 12/ 15 1015.0F
$$




USA.gov is the U.S. government's official web portal to all federal, state and local government web resources and services.